This is the latest recevied weather packets stored in our database for station/object S54A-11. If no packets are shown the sender has not sent any weather packets the latest 10 day(s).
| Time | Temp. | Humidity | Pressure | Rain* | Wind** | Luminosity | Snow |
|---|---|---|---|---|---|---|---|
| 1777451312 | 11.67° C | 61% | 1021.3 hPa | - | - | - | - |
| 1777450412 | 11.67° C | 61% | 1021.2 hPa | - | - | - | - |
| 1777449512 | 11.67° C | 64% | 1021.3 hPa | - | - | - | - |
| 1777448612 | 11.67° C | 65% | 1021 hPa | - | - | - | - |
| 1777447712 | 11.67° C | 60% | 1020.7 hPa | - | - | - | - |
| 1777446811 | 11.67° C | 60% | 1020.8 hPa | - | - | - | - |
| 1777445911 | 11.67° C | 66% | 1020.7 hPa | - | - | - | - |
| 1777445011 | 11.67° C | 61% | 1020.7 hPa | - | - | - | - |
| 1777444111 | 11.11° C | 65% | 1020.5 hPa | - | - | - | - |
| 1777443211 | 11.11° C | 63% | 1020.4 hPa | - | - | - | - |
| 1777442311 | 11.11° C | 63% | 1020.3 hPa | - | - | - | - |
| 1777441411 | 11.11° C | 62% | 1020.3 hPa | - | - | - | - |
| 1777440511 | 11.11° C | 62% | 1020 hPa | - | - | - | - |
| 1777439611 | 11.11° C | 67% | 1019.9 hPa | - | - | - | - |
| 1777438711 | 11.11° C | 62% | 1019.9 hPa | - | - | - | - |
| 1777437811 | 11.11° C | 68% | 1019.9 hPa | - | - | - | - |
| 1777436911 | 11.11° C | 64% | 1019.9 hPa | - | - | - | - |
| 1777436011 | 11.11° C | 65% | 1019.8 hPa | - | - | - | - |
| 1777434211 | 11.11° C | 66% | 1019.6 hPa | - | - | - | - |
| 1777433311 | 11.11° C | 60% | 1019.5 hPa | - | - | - | - |
| 1777432410 | 11.11° C | 70% | 1019.4 hPa | - | - | - | - |
| 1777431510 | 11.11° C | 69% | 1019.5 hPa | - | - | - | - |
| 1777430610 | 11.11° C | 74% | 1019.6 hPa | - | - | - | - |
| 1777429710 | 11.11° C | 65% | 1019.6 hPa | - | - | - | - |
| 1777428810 | 11.67° C | 61% | 1019.6 hPa | - | - | - | - |
* Rain since midnight (hover to see other rain measurements)
** Current wind speed in m/s (hover to see current wind gust speed)